#timestamp,LO_Frequency,Hit,StdDev 
1661184015.3,286046999.6,N
1661184035.1,286046997.3,Y
1661184055.8,286046996.6,P
1661184075.7,286046997.2,N
1661184095.5,286046997.5,N
1661184115.4,286046997.5,N
1661184135.2,286046998.0,N
1661184155.0,286046995.3,Y
1661184155.9,286046995.3,P
1661184175.8,286046998.9,N
1661184195.6,286046999.6,N
1661184215.4,286046996.6,N
1661184235.3,286046996.7,N
1661184255.1,286046996.5,N
1661184275.9,286046997.3,N
1661184295.7,286046997.3,N
1661184315.5,286046997.5,N
1661184335.4,286046997.6,N
1661184355.2,286046997.9,N
1661184375.1,286046997.6,N
1661184376.0,286046997.6,N
1661184395.8,286046997.5,N
1661184415.6,286046997.9,N
1661184435.5,286046995.2,Y
1661184455.3,286046999.5,P
1661184475.2,286046999.3,N
1661184495.9,286046998.7,N
1661184515.7,286046998.3,N
1661184535.6,286046999.3,N
1661184555.4,286046998.6,N
1661184575.2,286046998.6,N
1661184595.1,286046998.4,N
1661184596.0,286046998.4,N
1661184615.8,286046998.7,N
1661184635.7,286046998.8,N
1661184655.5,286046999.2,N
1661184675.3,286046998.4,Y
1661184695.2,286047000.7,P
1661184715.0,286046998.2,N
1661184715.9,286046998.2,N
1661184735.8,286047001.2,N
1661184755.6,286046998.5,N
1661184775.4,286046998.4,N
1661184795.3,286047000.8,N
1661184815.1,286046998.6,N
1661184835.8,286047001.0,N
1661184855.7,286047000.8,N
1661184875.5,286047000.8,N
1661184895.4,286047000.7,N
1661184915.2,286047000.7,N
1661184935.0,286046998.6,N
1661184935.9,286046998.6,N
1661184955.8,286047001.2,N
1661184975.6,286047001.2,N
1661184995.5,286046998.2,N
1661185015.3,286046998.2,N
1661185035.1,286046998.1,N
1661185055.9,286047000.7,N
1661185075.7,286047000.7,N
1661185095.5,286046998.2,N
1661185115.4,286046998.1,N
1661185135.2,286046998.5,N
1661185155.1,286046999.3,N
1661185156.0,286046999.3,N
1661185175.8,286046998.6,N
1661185195.6,286046998.7,N
1661185215.5,286046998.3,N
1661185235.3,286046998.6,N
1661185255.2,286046998.4,N
1661185275.9,286046998.3,N
1661185295.7,286046998.3,N
1661185315.6,286046998.7,N
1661185335.4,286046999.0,N
1661185355.2,286046998.9,N
1661185375.1,286046998.7,N
1661185376.0,286046998.7,N
1661185395.8,286046998.6,N
1661185415.7,286046999.0,N
1661185435.5,286046998.8,N
1661185455.3,286046998.7,N
1661185475.2,286046998.9,N
1661185495.0,286046999.1,N
1661185495.9,286046999.1,N
1661185515.8,286046998.1,N
1661185535.6,286046998.5,N
1661185555.4,286047001.1,N
1661185575.3,286047000.8,N
1661185595.1,286047000.4,N
1661185615.9,286046999.9,N
1661185635.7,286047002.7,Y
1661185655.5,286047001.8,P
1661185675.4,286047002.0,N
1661185695.2,286047002.7,N
1661185715.0,286047002.4,N
1661185715.9,286047002.4,N
1661185735.8,286047002.3,N
1661185755.6,286047001.5,N
1661185775.5,286047001.5,N
1661185795.3,286047002.3,N
1661185815.1,286046999.7,N
1661185835.9,286046999.7,N
1661185855.7,286046999.8,N
1661185875.5,286047000.4,N
1661185895.4,286046999.8,N
1661185915.2,286047000.5,N
1661185935.1,286047000.2,N
1661185936.0,286047000.2,N
1661185955.8,286046999.9,N
1661185975.6,286047000.5,N
1661185995.5,286047000.4,N
1661186015.3,286047000.1,N
1661186035.1,286046999.8,N
1661186055.9,286047002.8,N
1661186075.7,286047000.1,N
1661186095.6,286047002.6,N
1661186115.4,286047002.6,N
1661186135.2,286047001.9,N
1661186155.1,286047001.7,N
1661186156.0,286047001.7,N
1661186175.8,286047001.9,N
1661186195.7,286047002.4,N
1661186215.5,286046999.9,N
1661186235.3,286047000.0,N
1661186255.2,286046999.9,N
1661186275.0,286047000.4,N
1661186275.9,286047000.4,N
1661186295.7,286047000.5,N
1661186315.6,286047000.5,N
1661186335.4,286047000.7,N
1661186355.3,286046999.3,N
1661186375.1,286046999.4,N
1661186376.0,286046999.4,N
1661186395.8,286046998.7,N
1661186415.7,286047000.8,N
1661186435.5,286047000.6,N
1661186455.3,286047001.2,N
1661186475.2,286047000.1,N
1661186495.0,286046999.8,N
1661186495.9,286046999.8,N
1661186515.8,286047000.3,N
1661186535.6,286047000.3,N
1661186555.4,286047000.3,N
1661186575.3,286047000.9,N
1661186595.1,286047000.4,N
1661186615.8,286047000.3,N
1661186635.7,286047002.6,N
1661186655.5,286047002.0,N
1661186675.4,286047001.3,N
1661186695.2,286047001.3,N
1661186715.0,286047001.4,N
1661186715.9,286047001.4,N
1661186735.8,286047001.4,N
1661186755.6,286047001.5,N
1661186775.5,286047001.3,N
1661186795.3,286047001.7,N
1661186845.2,286047002.5,E
1661186855.1,286047000.7,N
1661186856.0,286047000.7,P
1661186875.8,286046998.9,P
1661186895.7,286046999.4,N
1661186915.5,286046999.4,N
1661186935.3,286046999.1,N
1661186955.2,286046999.5,N
1661186975.0,286046996.8,Y
1661186975.9,286046996.8,P
1661186995.8,286046999.6,N
1661187015.6,286046996.5,N
1661187035.4,286046999.2,N
1661187055.3,286046998.7,N
1661187075.1,286046999.1,N
1661187095.8,286046998.1,N
1661187115.7,286047001.1,N
1661187135.5,286046998.2,N
1661187155.4,286046998.7,N
1661187175.2,286046998.3,N
1661187195.0,286047000.7,N
1661187195.9,286047000.7,N
1661187215.8,286047000.3,N
1661187235.6,286047000.7,N
1661187255.4,286047000.5,N
1661187275.3,286047000.6,N
1661187295.1,286047000.1,N
1661187315.9,286047000.3,N
1661187335.7,286047002.7,N
1661187355.5,286047001.9,N
1661187375.4,286047001.6,N
1661187395.2,286047002.7,N
1661187415.1,286047002.5,N
1661187416.0,286047002.5,N
1661187435.8,286047002.4,N
1661187455.6,286047001.8,N
1661187475.5,286047001.6,N
1661187495.3,286047000.1,N
1661187515.2,286047002.8,N
1661187535.9,286047002.1,N
1661187555.7,286047002.1,N
1661187575.6,286047003.4,N
1661187595.4,286047001.7,N
